Overview Statistics Trail Chart Weather Telemetry Raw packets
 

This is the latest recevied weather packets stored in our database for station/object M0JUI-1. If no packets are shown the sender has not sent any weather packets the latest 10 day(s).

<< 62 63 64 65 66 67 68 >>
Time Temp. Humidity Pressure Rain* Wind** Luminosity Snow
1788203529 13.89° C 1% 1017.4 hPa 0 mm - 0 W/m² -
1788203230 13.89° C 1% 1017.2 hPa 0 mm - 0 W/m² -
1788202918 13.89° C 1% 1017.3 hPa 0 mm - 2 W/m² -
1788202618 14.44° C 1% 1017.1 hPa 0 mm - 6 W/m² -
1788202318 14.44° C 1% 1017.1 hPa 0 mm - 8 W/m² -
1788202017 14.44° C 1% 1017 hPa 0 mm - 9 W/m² -
1788201717 14.44° C 1% 1017 hPa 0 mm - 11 W/m² -
1788201417 14.44° C 1% 1016.9 hPa 0 mm - 15 W/m² -
1788201117 14.44° C 1% 1017 hPa 0 mm - 18 W/m² -
1788200817 14.44° C 1% 1016.8 hPa 0 mm - 22 W/m² -
1788200517 15° C 1% 1016.8 hPa 0 mm - 25 W/m² -
1788200218 15° C 1% 1016.8 hPa 0 mm - 26 W/m² -
1788199917 15° C 1% 1016.7 hPa 0 mm - 29 W/m² -
1788199617 15° C 1% 1016.8 hPa 0 mm - 34 W/m² -
1788199318 15° C 1% 1016.5 hPa 0 mm - 40 W/m² -
1788199017 15.56° C 1% 1016.4 hPa 0 mm - 44 W/m² -
1788198717 15.56° C 1% 1016.1 hPa 0 mm - 49 W/m² -
1788198417 15.56° C 1% 1016.4 hPa 0 mm - 53 W/m² -
1788198117 15.56° C 1% 1016.3 hPa 0 mm - 58 W/m² -
1788197817 15.56° C 1% 1016.1 hPa 0 mm - 65 W/m² -
1788197518 16.11° C 1% 1016 hPa 0 mm - 74 W/m² -
1788197217 16.11° C 1% 1016.1 hPa 0 mm - 76 W/m² -
1788196918 15.56° C 1% 1016.1 hPa 0 mm - 66 W/m² -
1788196618 15.56° C 1% 1016 hPa 0 mm - 58 W/m² -
1788196317 15.56° C 1% 1015.8 hPa 0 mm - 52 W/m² -

* Rain latest hour (hover to see other rain measurements)
** Current wind speed in m/s (hover to see current wind gust speed)